Temp
-11 -10 -11 -11 -10 -10 -11 -11 -11 -11 -11 -12 -12 -11 -11 -11 -11 -11 -10 -11 -11 -11 -10 -10 -10 -10 -10 -10 -10 -10 -10 -10 -10 -10 -11 -11 -11 -11 -11 -11 -11 -11 -10 -9 -9
-11 -11 -11 -10 -10 -10 -10 -10 -11 -11 -12 -12 -12 -12 -11 -11 -11 -11 -10 -10 -10 -11 -11 -11 -11 -11 -11 -11 -11 -11 -11 -10 -10 -10 -11 -11 -10 -11 -11 -11 -11 -12 -10 -10 -11
-11 -11 -11 -11 -10 -10 -10 -10 -10 -10 -11 -11 -12 -12 -12 -12 -11 -11 -11 -11 -11 -11 -11 -12 -11 -11 -11 -11 -12 -12 -11 -10 -10 -10 -11 -11 -11 -11 -11 -11 -11 -11 -11 -11 -12
-10 -11 -11 -12 -11 -11 -10 -10 -10 -10 -10 -12 -12 -12 -12 -12 -11 -11 -11 -11 -11 -11 -11 -11 -12 -12 -12 -11 -12 -12 -11 -10 -10 -10 -11 -10 -11 -10 -11 -11 -12 -12 -11 -11 -12
-11 -11 -11 -12 -11 -11 -11 -11 -11 -11 -11 -11 -12 -12 -12 -11 -9 -12 -12 -12 -11 -12 -12 -12 -12 -12 -12 -12 -12 -12 -11 -11 -11 -11 -11 -11 -11 -10 -10 -11 -12 -12 -11 -11 -12
-10 -10 -10 -10 -11 -12 -11 -11 -11 -11 -10 -10 -11 -12 -12 -8 -11 -12 -12 -12 -11 -11 -12 -12 -12 -12 -11 -12 -12 -11 -11 -10 -11 -11 -12 -11 -11 -10 -10 -12 -12 -11 -11 -11 -12
-10 -10 -10 -10 -10 -11 -11 -11 -10 -11 -11 -10 -10 -11 -9 -8 -11 -12 -12 -12 -12 -12 -12 -12 -12 -12 -12 -11 -11 -11 -10 -11 -11 -11 -10 -11 -10 -10 -12 -11 -12 -11 -12 -12 -11
-10 -11 -10 -10 -10 -10 -10 -10 -10 -10 -10 -10 -10 -10 -9 -10 -11 -11 -12 -12 -12 -12 -12 -12 -12 -11 -11 -11 -10 -10 -10 -8 -9 -10 -10 -12 -10 -12 -12 -11 -12 -12 -12 -11 -12
-10 -10 -10 -11 -10 -10 -10 -10 -11 -10 -10 -10 -10 -10 -8 -9 -10 -12 -12 -12 -12 -12 -12 -12 -12 -11 -11 -10 -9 -9 -8 -9 -10 -10 -10 -12 -11 -12 -12 -12 -12 -12 -13 -12 -12
-9 -10 -10 -10 -10 -11 -11 -11 -11 -10 -11 -10 -10 -9 -8 -10 -10 -11 -12 -11 -12 -11 -11 -11 -11 -10 -9 -9 -7 -9 -10 -10 -10 -11 -11 -12 -11 -11 -12 -12 -11 -12 -12 -12 -12
-10 -10 -10 -10 -10 -10 -10 -11 -12 -11 -10 -10 -9 -9 -10 -9 -10 -10 -11 -12 -12 -11 -10 -9 -10 -8 -9 -9 -10 -10 -11 -10 -10 -10 -12 -11 -11 -12 -12 -11 -11 -12 -12 -12 -13
-10 -10 -10 -10 -10 -10 -10 -11 -12 -11 -10 -10 -9 -9 -10 -11 -9 -10 -10 -11 -11 -10 -10 -10 -8 -9 -10 -10 -10 -10 -11 -10 -10 -10 -12 -11 -12 -12 -12 -11 -12 -12 -12 -12 -11
-12 -11 -11 -11 -11 -11 -10 -11 -12 -11 -10 -10 -9 -9 -10 -11 -10 -9 -10 -10 -10 -10 -10 -9 -8 -10 -10 -10 -10 -10 -10 -11 -11 -11 -12 -12 -12 -11 -11 -12 -12 -12 -12 -12 -11
-15 -15 -15 -14 -13 -12 -12 -12 -11 -11 -10 -8 -9 -8 -10 -10 -9 -10 -10 -10 -10 -9 -10 -9 -10 -10 -10 -10 -10 -10 -11 -11 -11 -11 -11 -12 -11 -11 -10 -11 -12 -12 -12 -12 -11
-20 -20 -20 -19 -17 -16 -14 -13 -13 -12 -11 -9 -9 -10 -11 -10 -9 -10 -10 -10 -9 -9 -9 -8 -9 -9 -9 -9 -10 -10 -11 -11 -11 -12 -12 -11 -12 -10 -11 -11 -11 -11 -11 -11 -11
-22 -22 -22 -22 -21 -21 -17 -15 -14 -13 -11 -9 -10 -9 -10 -10 -10 -11 -11 -11 -11 -10 -10 -9 -10 -10 -10 -10 -10 -11 -11 -11 -13 -12 -12 -11 -11 -10 -11 -11 -12 -11 -11 -12 -12
-22 -22 -22 -22 -22 -21 -20 -19 -18 -13 -11 -10 -13 -13 -12 -11 -11 -11 -11 -11 -9 -9 -9 -9 -9 -9 -10 -10 -11 -12 -13 -12 -13 -12 -9 -11 -12 -11 -12 -12 -12 -12 -11 -11 -11
-23 -23 -23 -24 -24 -24 -23 -22 -19 -12 -12 -12 -15 -15 -12 -13 -13 -13 -12 -11 -11 -10 -10 -9 -9 -9 -9 -9 -9 -10 -13 -12 -12 -11 -10 -12 -11 -10 -11 -12 -12 -11 -11 -11 -11
-24 -24 -24 -23 -23 -24 -24 -23 -19 -15 -14 -16 -16 -15 -16 -16 -16 -15 -13 -11 -10 -10 -9 -9 -9 -10 -10 -10 -10 -11 -11 -11 -11 -12 -12 -12 -12 -12 -11 -12 -12 -11 -10 -11 -12
-24 -24 -23 -24 -23 -23 -23 -21 -21 -20 -20 -20 -17 -16 -16 -16 -15 -15 -15 -11 -11 -11 -11 -10 -10 -10 -10 -11 -10 -11 -11 -13 -12 -12 -11 -10 -11 -11 -12 -12 -11 -10 -11 -11 -11
-24 -24 -25 -25 -25 -23 -22 -22 -23 -24 -24 -22 -19 -17 -16 -16 -15 -15 -12 -12 -12 -11 -11 -11 -11 -10 -11 -10 -10 -11 -13 -13 -12 -11 -11 -11 -11 -11 -12 -12 -11 -11 -11 -12 -12
-25 -25 -25 -25 -25 -25 -23 -24 -24 -25 -25 -22 -19 -16 -17 -16 -15 -14 -11 -10 -13 -12 -12 -11 -11 -11 -10 -10 -11 -11 -12 -12 -11 -11 -11 -12 -12 -11 -11 -11 -11 -11 -12 -11 -11
-25 -25 -25 -25 -25 -25 -25 -25 -24 -24 -24 -25 -23 -18 -18 -16 -15 -14 -13 -14 -15 -15 -12 -12 -12 -11 -11 -11 -12 -12 -11 -12 -12 -12 -11 -11 -11 -12 -12 -12 -11 -11 -12 -12 -11
-25 -26 -26 -25 -25 -25 -25 -25 -25 -25 -24 -24 -24 -23 -19 -16 -15 -14 -14 -16 -15 -15 -13 -14 -12 -11 -10 -11 -10 -12 -11 -11 -12 -10 -10 -10 -11 -12 -12 -11 -11 -11 -11 -12 -11
-26 -26 -26 -26 -26 -26 -26 -25 -25 -25 -25 -25 -23 -23 -20 -17 -15 -15 -15 -15 -15 -14 -14 -14 -12 -12 -11 -11 -12 -12 -10 -10 -10 -10 -10 -10 -11 -11 -11 -12 -11 -11 -10 -12 -12
-26 -26 -26 -26 -26 -26 -26 -26 -25 -25 -25 -24 -24 -23 -21 -18 -17 -15 -15 -15 -15 -14 -14 -14 -12 -12 -12 -11 -11 -12 -11 -11 -11 -11 -10 -10 -11 -12 -12 -12 -11 -11 -10 -10 -13
-27 -27 -27 -27 -27 -26 -26 -26 -25 -25 -25 -25 -25 -23 -22 -20 -18 -16 -15 -15 -15 -15 -14 -14 -11 -13 -12 -12 -12 -11 -12 -11 -10 -11 -11 -10 -10 -11 -12 -12 -12 -12 -10 -10 -11
Height
5812 5812 5813 5815 5817 5818 5820 5823 5824 5829 5832 5835 5838 5839 5843 5848 5847 5851 5857 5858 5857 5860 5865 5864 5866 5866 5865 5869 5868 5866 5864 5868 5866 5864 5864 5862 5861 5862 5860 5857 5854 5848 5845 5845 5842
5806 5806 5807 5807 5808 5809 5811 5813 5814 5817 5820 5824 5828 5830 5832 5836 5838 5844 5851 5849 5850 5852 5856 5857 5859 5857 5858 5862 5863 5859 5855 5862 5860 5860 5857 5857 5858 5858 5857 5856 5850 5843 5836 5835 5837
5798 5798 5798 5798 5798 5798 5800 5801 5803 5805 5809 5812 5816 5819 5821 5823 5827 5838 5840 5843 5844 5846 5847 5849 5850 5849 5850 5852 5856 5853 5847 5853 5854 5853 5851 5851 5852 5852 5850 5848 5845 5840 5837 5834 5832
5790 5789 5789 5789 5789 5788 5789 5790 5791 5793 5795 5798 5802 5807 5810 5811 5814 5826 5833 5836 5838 5838 5839 5841 5842 5840 5842 5843 5847 5838 5841 5845 5846 5845 5843 5845 5845 5846 5844 5843 5839 5834 5832 5830 5829
5780 5780 5779 5779 5779 5779 5780 5780 5780 5781 5782 5785 5788 5792 5796 5797 5805 5819 5823 5826 5828 5829 5830 5833 5832 5835 5830 5834 5835 5831 5834 5835 5838 5838 5838 5839 5839 5839 5838 5837 5835 5829 5827 5826 5826
5771 5770 5770 5768 5769 5769 5769 5769 5770 5770 5771 5773 5776 5779 5781 5779 5807 5809 5808 5812 5817 5819 5822 5823 5826 5827 5820 5824 5826 5828 5824 5825 5828 5830 5832 5833 5833 5834 5832 5832 5829 5825 5824 5823 5820
5760 5759 5758 5758 5758 5759 5760 5761 5761 5762 5763 5764 5766 5767 5767 5777 5793 5797 5794 5799 5806 5810 5812 5816 5817 5813 5818 5817 5821 5819 5817 5818 5820 5824 5827 5829 5825 5827 5827 5827 5825 5820 5820 5817 5814
5748 5747 5747 5746 5746 5746 5747 5749 5750 5752 5754 5756 5757 5757 5759 5772 5778 5781 5789 5790 5791 5799 5804 5805 5806 5806 5805 5809 5811 5811 5812 5810 5817 5821 5824 5822 5818 5819 5821 5823 5820 5817 5813 5810 5807
5736 5734 5732 5732 5733 5733 5733 5735 5737 5738 5742 5744 5748 5749 5756 5764 5770 5775 5770 5772 5778 5783 5788 5792 5794 5797 5800 5802 5803 5805 5806 5808 5813 5815 5817 5814 5812 5815 5817 5816 5816 5812 5810 5807 5803
5721 5719 5717 5716 5716 5718 5719 5721 5721 5725 5728 5732 5736 5741 5749 5758 5759 5763 5763 5769 5773 5775 5778 5783 5786 5786 5791 5794 5797 5802 5801 5804 5808 5810 5810 5810 5807 5809 5812 5813 5810 5807 5804 5802 5797
5698 5698 5698 5698 5698 5700 5704 5707 5707 5708 5713 5721 5726 5731 5736 5739 5749 5755 5758 5762 5765 5767 5771 5774 5777 5779 5788 5791 5794 5795 5795 5797 5802 5803 5805 5806 5805 5808 5808 5806 5804 5804 5802 5799 5794
5674 5674 5673 5673 5675 5679 5685 5687 5687 5690 5699 5706 5713 5719 5728 5730 5737 5745 5749 5751 5754 5759 5764 5766 5765 5778 5782 5784 5785 5787 5789 5791 5795 5796 5800 5799 5801 5803 5803 5801 5804 5801 5798 5793 5791
5643 5643 5645 5647 5650 5654 5659 5665 5669 5671 5681 5695 5702 5708 5720 5719 5722 5733 5737 5740 5744 5750 5753 5756 5767 5772 5773 5776 5777 5781 5783 5788 5791 5793 5795 5798 5798 5801 5802 5800 5798 5795 5792 5787 5787
5612 5613 5615 5618 5623 5626 5632 5638 5647 5655 5664 5679 5691 5697 5705 5710 5710 5723 5726 5728 5730 5737 5744 5746 5755 5759 5762 5766 5770 5773 5781 5783 5785 5787 5789 5792 5790 5792 5794 5793 5793 5790 5785 5784 5784
5588 5588 5589 5592 5596 5598 5604 5616 5625 5639 5648 5671 5678 5685 5694 5694 5710 5712 5718 5717 5721 5730 5734 5740 5747 5749 5752 5761 5765 5772 5775 5778 5780 5782 5784 5786 5786 5790 5788 5789 5787 5784 5782 5780 5779
5575 5574 5573 5575 5578 5576 5582 5590 5601 5620 5637 5654 5660 5669 5675 5687 5692 5698 5704 5707 5715 5719 5723 5730 5736 5738 5747 5755 5760 5766 5769 5771 5775 5778 5777 5781 5784 5785 5784 5783 5781 5782 5781 5777 5775
5561 5559 5557 5558 5560 5560 5566 5571 5580 5594 5634 5645 5648 5649 5659 5671 5679 5685 5689 5695 5703 5710 5716 5724 5728 5735 5740 5746 5751 5754 5763 5765 5768 5770 5772 5780 5780 5782 5782 5780 5780 5779 5779 5776 5772
5549 5547 5546 5546 5546 5545 5548 5554 5554 5592 5610 5627 5626 5627 5632 5650 5664 5671 5672 5684 5693 5704 5709 5717 5721 5726 5734 5737 5744 5747 5755 5759 5761 5764 5772 5775 5773 5775 5775 5777 5777 5776 5776 5774 5770
5540 5538 5536 5534 5535 5535 5538 5538 5548 5573 5584 5597 5602 5615 5622 5630 5639 5653 5661 5676 5688 5697 5703 5709 5716 5725 5729 5736 5739 5744 5746 5757 5760 5763 5766 5768 5772 5773 5772 5774 5773 5770 5773 5771 5767
5532 5527 5524 5523 5522 5523 5527 5533 5540 5549 5563 5566 5576 5586 5596 5606 5618 5627 5649 5666 5678 5685 5696 5705 5709 5719 5726 5730 5733 5735 5747 5751 5752 5757 5759 5763 5766 5767 5769 5769 5767 5768 5769 5767 5764
5522 5517 5517 5516 5516 5517 5521 5525 5532 5536 5541 5549 5555 5564 5578 5587 5600 5609 5635 5650 5667 5680 5686 5696 5701 5713 5717 5717 5725 5730 5736 5744 5751 5754 5756 5761 5764 5765 5764 5765 5766 5766 5767 5764 5762
5516 5513 5513 5513 5514 5514 5516 5520 5524 5524 5532 5537 5545 5557 5567 5571 5583 5601 5623 5639 5657 5666 5672 5685 5692 5699 5706 5716 5722 5726 5732 5738 5741 5747 5752 5757 5760 5759 5762 5763 5763 5765 5766 5762 5759
5511 5511 5511 5512 5510 5512 5513 5516 5517 5520 5525 5525 5531 5539 5547 5567 5583 5595 5606 5617 5628 5643 5659 5675 5678 5689 5700 5706 5714 5718 5725 5732 5736 5742 5746 5751 5757 5756 5758 5758 5760 5763 5763 5758 5758
5509 5509 5509 5509 5509 5509 5509 5511 5513 5515 5518 5520 5525 5528 5539 5556 5569 5581 5588 5602 5615 5627 5640 5658 5670 5675 5687 5698 5708 5712 5719 5726 5731 5733 5740 5745 5753 5755 5753 5753 5756 5757 5760 5758 5756
5507 5507 5506 5507 5506 5505 5503 5505 5508 5511 5511 5514 5521 5522 5532 5544 5558 5566 5576 5593 5604 5616 5629 5644 5655 5669 5682 5693 5700 5707 5713 5718 5724 5730 5733 5741 5748 5747 5749 5750 5751 5752 5756 5756 5755
5505 5505 5504 5503 5502 5501 5500 5500 5502 5505 5509 5512 5513 5518 5524 5533 5543 5557 5573 5586 5597 5609 5621 5632 5645 5662 5671 5682 5691 5698 5705 5711 5719 5724 5728 5734 5741 5744 5745 5746 5746 5749 5751 5755 5754
5504 5503 5502 5501 5500 5499 5499 5499 5499 5500 5504 5507 5509 5513 5517 5520 5530 5547 5559 5572 5588 5598 5611 5623 5640 5649 5659 5676 5685 5685 5692 5702 5713 5718 5723 5727 5735 5741 5741 5743 5742 5743 5748 5750 5752
Wind_Speed
35 34 34 42 50 54 54 61 63 59 60 55 54 57 52 45 48 43 41 36 42 38 35 33 32 32 33 31 28 32 38 31 25 26 24 18 18 28 27 34 39 42 40 37 36
41 41 38 39 44 49 54 55 57 62 63 65 65 59 57 56 55 47 44 43 43 46 43 43 34 32 33 31 33 37 41 27 29 27 28 22 22 24 28 29 35 37 41 39 32
37 39 39 40 43 47 50 50 53 55 60 62 62 63 64 65 59 47 49 47 47 46 38 39 35 38 40 39 35 40 41 35 37 35 24 21 17 21 26 31 30 33 35 36 33
30 32 40 40 38 40 43 45 47 54 61 69 70 65 70 63 64 59 50 45 43 44 42 40 40 42 45 47 42 51 51 46 28 28 23 25 23 18 28 26 28 35 31 31 32
38 31 29 38 39 39 41 41 43 47 53 61 65 65 63 65 59 55 54 52 47 47 46 43 46 44 51 50 52 55 56 43 34 31 29 29 22 23 28 20 29 34 32 27 26
41 42 43 43 43 44 36 38 41 39 42 46 56 63 64 59 51 54 53 56 56 58 59 53 53 51 58 55 58 49 32 26 30 33 32 25 25 26 21 17 28 32 30 29 29
45 43 45 44 45 45 44 38 42 45 39 39 46 54 51 48 55 57 64 66 63 61 64 60 60 60 57 62 38 28 27 28 34 35 20 23 26 20 19 20 28 35 28 27 24
49 50 49 50 47 47 47 47 46 47 48 47 43 40 40 39 46 53 57 60 64 65 64 66 63 44 31 35 30 29 25 25 23 18 7 17 20 17 25 25 25 31 27 32 36
51 51 52 53 53 54 54 50 47 48 48 50 49 44 30 27 27 41 54 56 53 57 45 35 33 35 39 30 28 24 20 20 9 7 7 10 20 19 26 35 25 27 33 30 34
59 59 58 57 56 56 57 56 55 51 50 50 51 46 37 34 34 36 34 27 28 27 32 35 35 35 32 30 17 18 21 18 8 5 10 14 29 24 28 30 31 31 37 37 34
67 66 66 65 64 62 59 58 60 59 56 49 48 46 45 44 37 37 38 37 32 36 31 34 39 34 25 22 22 22 24 20 15 6 17 22 17 15 17 26 26 28 22 23 32
74 73 72 71 70 68 65 62 63 65 61 56 51 43 44 49 43 38 42 46 44 39 38 41 37 29 25 27 25 24 25 22 16 12 17 22 21 22 24 28 29 27 24 26 22
79 79 79 78 76 75 72 69 67 68 66 60 54 50 40 45 45 40 43 46 49 49 46 41 31 30 31 31 30 26 26 17 22 17 25 25 32 34 31 29 26 22 25 28 27
79 76 74 76 79 79 78 75 73 71 69 63 59 53 49 45 42 33 35 42 50 51 48 45 40 38 37 34 30 29 20 20 22 18 25 26 31 26 20 20 15 12 27 30 34
51 53 51 54 64 73 78 78 75 72 71 65 58 57 53 53 42 38 31 36 37 34 37 34 29 36 36 30 28 24 22 20 13 10 17 27 30 13 16 13 13 18 26 32 37
42 45 47 48 48 54 62 71 74 71 72 68 64 58 57 54 51 45 38 40 35 35 35 29 25 34 31 27 27 22 22 18 11 17 32 26 26 7 7 9 18 26 30 35 38
44 44 44 43 39 45 51 56 61 75 69 66 55 53 57 50 46 47 51 46 41 40 36 31 31 28 29 32 30 23 15 23 26 31 22 15 19 6 8 7 17 25 27 26 16
30 30 28 29 30 32 36 47 62 68 66 62 43 39 58 43 52 41 44 50 47 37 36 34 36 33 29 32 31 26 27 30 30 28 9 7 10 15 11 11 20 24 23 27 17
31 30 30 32 34 34 32 38 49 51 59 56 45 48 40 29 26 22 48 42 46 43 40 38 35 28 31 28 30 30 32 20 28 24 16 12 9 16 13 15 22 29 27 26 28
34 29 29 26 27 32 34 29 25 38 40 46 56 61 54 51 41 40 28 52 45 45 42 39 35 28 28 29 31 33 26 33 34 32 27 21 19 17 22 20 27 30 27 31 20
32 18 13 14 14 18 21 20 16 27 35 45 68 63 60 59 54 52 50 49 48 46 44 41 40 32 31 36 34 34 38 39 32 25 21 18 16 16 17 23 26 27 27 29 21
23 9 5 11 12 8 9 18 20 26 33 46 64 71 62 63 64 54 50 56 40 42 49 45 44 43 38 32 29 32 39 40 35 28 23 16 9 14 16 21 24 22 21 25 13
13 6 5 9 8 14 19 17 22 25 28 40 54 75 63 62 64 54 56 55 50 39 48 43 49 47 41 39 34 35 33 34 37 29 24 22 17 27 24 24 26 20 20 16 7
9 4 4 7 9 19 22 22 19 22 29 35 38 58 62 65 68 64 65 58 54 46 51 37 47 54 50 44 40 39 36 34 39 34 29 26 15 26 24 25 20 19 18 10 7
10 3 4 8 13 18 24 26 25 22 23 22 36 47 59 65 73 70 71 61 57 55 51 40 47 54 50 44 42 40 36 35 34 33 34 24 20 27 23 19 25 26 18 3 9
8 7 8 12 11 16 4 10 20 26 16 18 27 42 61 62 64 68 71 65 62 60 55 46 48 53 54 52 48 45 41 38 31 34 36 30 23 27 21 23 27 28 23 3 9
9 10 9 8 8 2 9 11 10 20 26 18 26 39 50 58 57 66 74 73 67 64 60 54 56 50 58 54 48 48 51 40 32 31 32 33 24 25 31 28 28 28 21 9 3
Wind_Direction
258 256 254 250 247 247 250 251 256 249 244 245 247 257 263 245 249 248 244 253 266 259 258 261 269 271 273 276 279 285 286 291 282 298 301 249 259 279 285 298 301 294 298 306 334
260 251 254 253 252 251 247 248 249 249 252 250 253 255 257 248 252 249 245 252 257 261 260 264 263 262 269 276 285 285 281 282 287 297 294 271 269 283 287 286 286 287 305 313 337
257 255 254 252 251 251 251 249 247 247 246 247 249 252 255 259 256 241 248 249 252 256 252 257 255 264 270 273 284 287 277 283 297 285 293 291 291 287 286 287 284 293 297 309 324
257 257 253 250 249 244 246 248 246 248 247 248 250 248 254 252 251 247 248 249 250 245 246 254 262 268 270 271 279 285 284 282 287 289 296 289 298 287 281 284 289 285 308 318 317
256 257 268 257 248 250 249 249 251 251 250 248 246 247 248 250 248 251 249 243 240 244 243 255 260 269 269 277 277 279 286 282 280 289 286 281 292 278 273 303 289 287 307 314 320
266 262 262 258 257 248 251 253 253 254 254 250 247 246 247 251 240 242 246 243 242 243 250 248 257 268 267 277 280 283 271 269 275 281 274 283 275 275 296 301 296 306 306 308 316
269 269 267 261 259 252 252 255 254 253 250 253 251 248 249 250 245 242 243 247 251 251 251 263 262 262 268 260 265 267 262 267 267 270 280 277 277 292 296 312 308 307 308 301 306
270 267 263 265 263 262 258 251 253 250 248 244 244 251 256 252 240 239 246 248 251 254 253 258 259 255 255 267 260 255 261 260 268 269 297 269 310 314 310 306 309 307 316 318 304
272 268 266 261 258 259 261 260 255 249 247 247 244 245 253 240 239 248 246 249 253 252 246 234 232 246 251 250 249 250 266 275 274 259 238 261 306 302 291 289 310 314 306 305 305
272 270 267 265 262 257 254 256 255 254 249 245 243 245 253 246 241 241 250 237 228 230 232 233 240 241 237 240 253 273 273 263 215 223 338 281 268 287 285 298 302 321 315 302 299
270 268 266 264 261 259 257 252 253 251 250 249 247 245 245 246 237 233 236 242 236 239 219 227 240 228 239 250 255 249 249 244 220 203 292 292 301 279 289 291 301 309 296 299 297
266 264 262 260 258 257 254 250 249 250 247 247 248 246 243 251 243 235 234 237 234 230 235 237 234 235 240 242 240 233 236 242 264 199 252 291 292 288 292 290 293 283 324 321 326
268 264 262 258 253 252 251 247 245 248 249 242 243 244 241 243 247 235 233 233 234 236 237 239 239 240 238 237 242 240 240 240 266 231 210 237 249 255 262 269 277 302 304 308 320
272 270 264 260 256 252 247 245 243 243 247 246 241 240 240 240 243 237 230 231 232 234 237 239 240 230 230 234 238 238 238 247 257 230 231 237 259 264 276 294 275 282 290 293 304
275 272 269 264 260 256 251 246 243 239 243 246 245 241 239 240 245 240 236 238 238 237 233 241 237 226 227 237 241 243 236 245 219 244 264 269 275 303 271 259 280 292 286 297 314
283 280 276 273 266 258 253 251 245 239 237 241 244 244 241 238 236 232 230 230 229 234 233 227 217 221 226 232 234 231 231 211 219 256 258 265 282 322 226 267 304 312 312 309 308
287 283 279 275 271 262 254 250 247 238 233 235 239 245 243 239 236 234 232 229 229 225 226 221 219 216 218 218 219 194 218 206 214 230 251 281 268 312 237 266 301 309 313 316 316
296 290 282 270 268 270 252 243 243 235 230 228 217 213 226 240 241 232 233 227 228 226 230 228 221 220 218 224 215 210 212 227 220 236 266 209 287 319 263 270 295 298 320 337 312
306 296 284 275 268 261 258 247 246 233 226 210 200 205 204 196 233 228 233 228 228 230 227 226 223 224 227 228 213 197 215 229 233 241 236 220 253 282 276 289 288 294 322 333 333
310 294 289 281 266 253 252 265 251 230 220 211 195 191 189 192 193 204 210 223 219 224 225 230 229 225 229 218 220 206 209 223 233 231 235 238 227 228 258 284 284 302 321 328 328
326 296 289 279 273 261 256 258 261 233 225 205 199 194 190 190 188 195 207 208 216 221 223 221 227 218 216 217 216 203 202 224 237 240 241 245 251 221 258 274 280 302 317 322 311
326 291 248 280 278 311 271 239 243 235 227 207 202 195 194 193 189 190 200 206 206 220 221 219 221 220 220 219 217 218 207 217 228 231 228 223 216 253 242 260 278 297 316 317 298
318 278 244 261 275 285 286 283 250 236 227 232 210 202 199 196 188 186 191 193 194 205 217 210 215 218 216 208 205 221 215 219 228 234 228 237 210 238 263 276 282 296 316 322 282
328 297 228 270 264 255 260 260 256 251 235 232 230 217 200 193 191 187 195 191 188 192 202 211 210 215 216 219 218 215 218 217 222 229 227 234 214 222 244 263 292 293 314 332 304
330 294 280 285 274 279 269 265 250 246 250 241 228 228 204 194 191 190 194 186 185 187 196 198 207 209 214 211 207 223 229 226 222 231 235 239 222 226 245 273 273 285 300 13 345
319 295 293 304 297 303 291 273 257 235 226 217 230 227 211 201 195 192 192 184 187 184 189 191 197 203 209 211 207 210 223 231 229 235 236 234 225 224 241 259 270 276 299 245 336
333 335 301 302 326 257 302 298 273 235 227 220 224 218 221 209 202 192 190 186 186 185 184 190 191 196 208 208 200 211 215 223 230 234 240 237 230 210 217 241 261 275 292 315 196